Date String (YYYY-MM-DD hh:mm:ss) UTC,Instrument flags,Ambient pressure (hPa),Sample flow (lpm),Bypass flow (lpm),Sample temperature (°C),Ambient temperature (°C),ASC tube jacket temperature (°C),LED temperature (°C),Box temperature (°C),Sample RH (%),Span deviation,Mass concentration (μg/m³),Mass concentration (μg/m³),Mass concentration (μg/m³)
DateTimeUTC,F1_M11,P_M11,Q1_M11,Q2_M11,T1_M11,T2_M11,T3_M11,T4_M11,T5_M11,U1_M11,ZSPAN_M11,X2_M11,X0_M11,X1_M11
2021-12-20 23:00:00,,0826.0,4.99,0.00,27.3,26.3,00.0,36.2,29.1,06.2,0000.0,0000.60,0002.77,0000.47
2021-12-20 23:01:00,,0826.0,5.00,0.00,27.3,26.3,00.0,36.2,29.1,06.2,0000.0,0000.62,0002.97,0000.46
2021-12-20 23:02:00,,0826.0,5.01,0.00,27.3,26.3,00.0,36.2,29.0,06.1,0000.0,0000.61,0002.35,0000.46
2021-12-20 23:03:00,,0825.9,5.00,0.00,27.4,26.4,00.0,36.2,29.1,06.1,0000.0,0000.62,0001.34,0000.46
2021-12-20 23:04:00,,0825.9,5.00,0.00,27.4,26.4,00.0,36.2,29.1,06.1,0000.0,0000.62,0001.26,0000.46
2021-12-20 23:05:00,,0825.9,5.00,0.00,27.4,26.4,00.0,36.3,29.1,06.2,0000.0,0000.60,0001.20,0000.46
2021-12-20 23:06:00,,0825.9,4.99,0.00,27.4,26.4,00.0,36.3,29.1,06.2,0000.0,0000.59,0001.17,0000.46
2021-12-20 23:07:00,,0826.0,4.99,0.00,27.4,26.4,00.0,36.3,29.1,06.1,0000.0,0000.58,0001.13,0000.46
2021-12-20 23:08:00,,0825.9,5.01,0.00,27.4,26.4,00.0,36.3,29.2,06.1,0000.0,0000.58,0001.13,0000.46
2021-12-20 23:09:00,,0825.9,5.00,0.00,27.4,26.4,00.0,36.3,29.2,06.1,0000.0,0000.58,0001.13,0000.46
2021-12-20 23:10:00,,0825.8,4.99,0.00,27.4,26.4,00.0,36.3,29.2,06.1,0000.0,0000.57,0001.12,0000.46
2021-12-20 23:11:00,,0825.8,5.00,0.00,27.4,26.4,00.0,36.3,29.2,06.1,0000.0,0000.57,0001.09,0000.46
2021-12-20 23:12:00,,0825.9,4.99,0.00,27.4,26.4,00.0,36.3,29.2,06.1,0000.0,0000.57,0000.92,0000.47
2021-12-20 23:13:00,,0825.8,4.99,0.00,27.4,26.4,00.0,36.3,29.1,06.1,0000.0,0000.57,0000.89,0000.47
2021-12-20 23:14:00,,0825.8,5.02,0.00,27.4,26.4,00.0,36.3,29.1,06.1,0000.0,0000.54,0000.69,0000.48
2021-12-20 23:15:00,,0825.8,4.98,0.00,27.4,26.4,00.0,36.3,29.1,06.1,0000.0,0000.55,0000.70,0000.48
2021-12-20 23:16:00,,0825.9,5.02,0.00,27.4,26.4,00.0,36.3,29.1,06.1,0000.0,0000.56,0000.73,0000.48
2021-12-20 23:17:00,,0825.8,5.01,0.00,27.4,26.4,00.0,36.3,29.1,06.0,0000.0,0000.56,0000.83,0000.49
2021-12-20 23:18:00,,0825.8,4.99,0.00,27.4,26.4,00.0,36.3,29.2,06.0,0000.0,0000.55,0000.81,0000.49
2021-12-20 23:19:00,,0825.8,5.00,0.00,27.5,26.4,00.0,36.4,29.2,06.0,0000.0,0000.56,0000.84,0000.49
2021-12-20 23:20:00,,0825.8,5.00,0.00,27.5,26.4,00.0,36.4,29.2,06.0,0000.0,0000.57,0000.86,0000.49
2021-12-20 23:21:00,,0825.8,4.97,0.00,27.5,26.4,00.0,36.4,29.2,06.1,0000.0,0000.57,0000.84,0000.49
2021-12-20 23:22:00,,0825.7,5.01,0.00,27.5,26.4,00.0,36.4,29.2,06.1,0000.0,0000.56,0000.83,0000.49
2021-12-20 23:23:00,,0826.1,5.00,0.00,27.5,26.4,00.0,36.4,29.2,06.1,0000.0,0000.60,0001.09,0000.49
2021-12-20 23:24:00,,0825.9,5.00,0.00,27.5,26.4,00.0,36.4,29.2,06.1,0000.0,0000.68,0001.61,0000.50
2021-12-20 23:25:00,,0825.8,5.00,0.00,27.5,26.4,00.0,36.4,29.2,06.0,0000.0,0000.71,0002.47,0000.50
2021-12-20 23:26:00,,0825.6,5.00,0.00,27.5,26.4,00.0,36.4,29.2,06.1,0000.0,0000.75,0003.29,0000.51
2021-12-20 23:27:00,,0825.7,5.01,0.00,27.5,26.4,00.0,36.4,29.1,06.1,0000.0,0000.76,0003.30,0000.50
2021-12-20 23:28:00,,0825.7,5.00,0.00,27.5,26.3,00.0,36.4,29.1,06.1,0000.0,0000.76,0003.21,0000.50
2021-12-20 23:29:00,,0825.7,4.99,0.00,27.5,26.4,00.0,36.4,29.2,06.1,0000.0,0000.75,0003.21,0000.51
2021-12-20 23:30:00,,0825.7,5.00,0.00,27.5,26.4,00.0,36.4,29.1,06.1,0000.0,0000.76,0003.62,0000.50
2021-12-20 23:31:00,,0825.7,5.01,0.00,27.5,26.4,00.0,36.4,29.1,06.1,0000.0,0000.82,0004.34,0000.50
2021-12-20 23:32:00,,0825.6,4.99,0.00,27.5,26.4,00.0,36.4,29.2,06.1,0000.0,0000.85,0004.47,0000.50
2021-12-20 23:33:00,,0825.6,4.98,0.00,27.5,26.4,00.0,36.4,29.1,06.2,0000.0,0000.87,0004.91,0000.50
2021-12-20 23:34:00,,0825.7,5.02,0.00,27.5,26.4,00.0,36.4,29.1,06.2,0000.0,0000.83,0004.66,0000.49
2021-12-20 23:35:00,,0825.7,5.00,0.00,27.4,26.4,00.0,36.4,29.1,06.2,0000.0,0000.74,0004.18,0000.48
2021-12-20 23:36:00,,0825.7,4.99,0.00,27.5,26.4,00.0,36.4,29.1,06.2,0000.0,0000.71,0003.47,0000.47
2021-12-20 23:37:00,,0825.7,5.01,0.00,27.5,26.4,00.0,36.4,29.2,06.2,0000.0,0000.67,0002.46,0000.46
2021-12-20 23:38:00,,0825.7,5.00,0.00,27.5,26.4,00.0,36.4,29.1,06.2,0000.0,0000.66,0002.48,0000.46
2021-12-20 23:39:00,,0825.7,5.00,0.00,27.5,26.4,00.0,36.4,29.1,06.2,0000.0,0000.65,0002.45,0000.45
2021-12-20 23:40:00,,0825.7,4.99,0.00,27.5,26.4,00.0,36.4,29.1,06.2,0000.0,0000.64,0002.44,0000.44
2021-12-20 23:41:00,,0825.7,5.00,0.00,27.5,26.4,00.0,36.4,29.1,06.2,0000.0,0000.63,0002.15,0000.44
2021-12-20 23:42:00,,0825.7,5.00,0.00,27.4,26.4,00.0,36.4,29.1,06.2,0000.0,0000.56,0001.28,0000.43
2021-12-20 23:43:00,,0825.7,5.00,0.00,27.4,26.4,00.0,36.4,29.1,06.2,0000.0,0000.53,0002.16,0000.42
2021-12-20 23:44:00,,0825.7,5.01,0.00,27.4,26.4,00.0,36.4,29.1,06.2,0000.0,0000.52,0002.93,0000.42
2021-12-20 23:45:00,,0825.8,5.00,0.00,27.4,26.4,00.0,36.4,29.1,06.2,0000.0,0000.52,0002.95,0000.42
2021-12-20 23:46:00,,0825.7,5.00,0.00,27.4,26.4,00.0,36.4,29.1,06.2,0000.0,0000.51,0002.94,0000.41
2021-12-20 23:47:00,,0825.7,5.01,0.00,27.4,26.4,00.0,36.4,29.1,06.3,0000.0,0000.50,0002.92,0000.41
2021-12-20 23:48:00,,0825.7,4.99,0.00,27.4,26.4,00.0,36.4,29.1,06.3,0000.0,0000.49,0002.89,0000.41
2021-12-20 23:49:00,,0825.7,5.00,0.00,27.5,26.5,00.0,36.4,29.2,06.4,0000.0,0000.48,0003.27,0000.40
2021-12-20 23:50:00,,0825.7,5.00,0.00,27.5,26.5,00.0,36.4,29.2,06.3,0000.0,0000.49,0003.43,0000.40
2021-12-20 23:51:00,,0825.7,4.99,0.00,27.5,26.5,00.0,36.4,29.2,06.4,0000.0,0000.49,0003.43,0000.40
2021-12-20 23:52:00,,0825.7,5.00,0.00,27.5,26.5,00.0,36.4,29.2,06.3,0000.0,0000.49,0003.44,0000.40
2021-12-20 23:53:00,,0825.7,5.02,0.00,27.5,26.5,00.0,36.4,29.2,06.2,0000.0,0000.48,0003.43,0000.41
2021-12-20 23:54:00,,0825.7,5.00,0.00,27.5,26.4,00.0,36.4,29.2,06.3,0000.0,0000.47,0002.56,0000.41
2021-12-20 23:55:00,,0825.8,5.00,0.00,27.5,26.4,00.0,36.4,29.2,06.4,0000.0,0000.47,0001.32,0000.41
2021-12-20 23:56:00,,0825.7,5.00,0.00,27.5,26.5,00.0,36.4,29.2,06.5,0000.0,0000.47,0001.21,0000.40
2021-12-20 23:57:00,,0825.7,5.00,0.00,27.5,26.5,00.0,36.4,29.2,06.6,0000.0,0000.48,0001.24,0000.40
2021-12-20 23:58:00,,0825.6,5.01,0.00,27.5,26.5,00.0,36.4,29.3,06.5,0000.0,0000.49,0001.26,0000.40
2021-12-20 23:59:00,,0825.6,5.00,0.00,27.5,26.6,00.0,36.4,29.3,06.6,0000.0,0000.48,0001.29,0000.39
